Weather in Oktyabrskoye

Russia / Chuvash Republic     55°54′15″N   47°49′00″E
temp.,
°C
wind,
m/s
gust,
m/s
humid.,
%
clouds,
%
prec.,
mm/h
press.,
hPa
HPBL,
m
22 april, thu
thu2200:00+2sse71594100 0.1 1018568
03:00+3s71395100 0.1 1019399
06:00+4s61094100 0.1 1021353
09:00+6s5986100 0.1 1021375
12:00+9s6977100 0.0 1021642
15:00+11s6106799 1.0 1020660
18:00+10sw47779 1.6 1020193
21:00+6wsw22885 1.8 102210
23 april, fri
fri2300:00+5ssw22875 0.0 102311
03:00+4s22875 0.0 102415
06:00+5s35855 0.0 102499
09:00+11s34603 0.0 1024564
12:00+14s34498 0.0 10241474
15:00+15sse444770 0.0 10221866
18:00+13se335575 0.0 102160
21:00+9ese3475100 0.0 102169
24 april, sat
sat2400:00+8ese3480100 0.0 101961
03:00+7e3686100 0.0 1017127
06:00+7e41084100 0.0 1016334
09:00+9ese5779100 0.0 1014708
12:00+7ese4689100 1.3 1012974
15:00+7ese4688100 1.4 1011783
18:00+7ese5891100 0.1 1009498
21:00+5ese5109484 0.1 1007320
25 april, sun
sun2500:00+6s3796100 2.8 1004436
03:00+4wsw61191100 3.9 1005922
06:00+5wsw6118253 0.0 1005859
09:00+7wsw71066100 0.1 10061446
12:00+8w795849 0.2 10081509
15:00+10w794594 0.4 10092165
18:00+7wsw69645 0.8 1011725
21:00+4sw512735 0.8 1013317
26 april, mon
mon2600:00+3sw613770 0.0 1014397
03:00+2sw5138144 0.0 1015375
06:00+3sw511810 0.0 1016408
09:00+7sw69605 0.0 10161270
12:00+8sw696291 0.2 10151289
15:00+10sw8115977 0.7 10141681
18:00+8sw4867100 0.3 1013478
21:00+6s2175100 0.3 101213